• In Romania
  • List of Countries
  • For 7 days
  • Water Temperature
  • Satellite Maps
  • Weather Map
  • Weather Widgets
  • user-avatar
    Login

    Hourly Weather Oyem

    Today, 22 September, Saturday

    Time Temperature Precipitation Wind Pressure Humidity
    00:00 +22°C° 0.4 mm 1 mps 703 mmHg 98%
    01:00 +22°C° 0.4 mm 1 mps 703 mmHg 98%
    02:00 +22°C° 0.1 mm 1 mps 703 mmHg 99%
    03:00 +22°C° 0.1 mm 1 mps 702 mmHg 99%
    04:00 +20°C° 0.1 mm 0 mps 702 mmHg 99%
    05:00 +20°C° 0 mm 0 mps 702 mmHg 98%
    06:00 +20°C° 0 mm 0 mps 703 mmHg 98%
    07:00 +20°C° 0 mm 0 mps 703 mmHg 98%
    08:00 +23°C° 0 mm 1 mps 704 mmHg 92%
    09:00 +25°C° 0 mm 1 mps 704 mmHg 85%
    10:00 +26°C° 0 mm 1 mps 705 mmHg 79%
    11:00 +27°C° 0 mm 1 mps 704 mmHg 72%
    12:00 +29°C° 0 mm 1 mps 704 mmHg 66%
    13:00 +30°C° 0 mm 1 mps 703 mmHg 59%
    14:00 +29°C° 1.2 mm 1 mps 703 mmHg 67%
    15:00 +28°C° 1.2 mm 1 mps 702 mmHg 76%
    16:00 +27°C° 1.2 mm 1 mps 701 mmHg 84%
    17:00 +26°C° 0.9 mm 1 mps 702 mmHg 88%
    18:00 +25°C° 0.9 mm 1 mps 702 mmHg 92%
    19:00 +23°C° 0.9 mm 1 mps 702 mmHg 97%
    20:00 +23°C° 0 mm 1 mps 703 mmHg 97%
    21:00 +23°C° 0 mm 1 mps 703 mmHg 98%
    22:00 +22°C° 0 mm 1 mps 703 mmHg 98%
    23:00 +22°C° 0 mm 1 mps 703 mmHg 99%

    Tomorrow, 23 September, Sunday

    Time Temperature Precipitation Wind Pressure Humidity
    00:00 +22°C° 0 mm 1 mps 703 mmHg 99%
    01:00 +22°C° 0 mm 1 mps 703 mmHg 99%
    02:00 +22°C° 0.1 mm 1 mps 703 mmHg 99%
    03:00 +22°C° 0.1 mm 1 mps 703 mmHg 99%
    04:00 +21°C° 0.1 mm 1 mps 703 mmHg 99%
    05:00 +22°C° 0 mm 1 mps 703 mmHg 99%
    06:00 +22°C° 0 mm 1 mps 703 mmHg 98%
    07:00 +22°C° 0 mm 1 mps 704 mmHg 98%
    08:00 +23°C° 0 mm 1 mps 704 mmHg 93%
    09:00 +24°C° 0 mm 1 mps 705 mmHg 88%
    10:00 +26°C° 0 mm 1 mps 705 mmHg 82%
    11:00 +27°C° 0 mm 1 mps 705 mmHg 75%
    12:00 +27°C° 0 mm 0 mps 704 mmHg 67%
    13:00 +28°C° 0 mm 0 mps 704 mmHg 60%
    14:00 +28°C° 1.1 mm 0 mps 704 mmHg 66%
    15:00 +27°C° 1.1 mm 0 mps 703 mmHg 72%
    16:00 +26°C° 1.1 mm 0 mps 702 mmHg 78%
    17:00 +25°C° 1 mm 0 mps 702 mmHg 84%
    18:00 +25°C° 1 mm 1 mps 703 mmHg 90%
    19:00 +23°C° 1 mm 1 mps 703 mmHg 96%
    20:00 +23°C° 0 mm 1 mps 703 mmHg 96%
    21:00 +23°C° 0 mm 1 mps 704 mmHg 97%
    22:00 +23°C° 0 mm 1 mps 704 mmHg 98%
    23:00 +22°C° 0 mm 1 mps 703 mmHg 98%

    Day after tomorrow, 24 September, Monday

    Time Temperature Precipitation Wind Pressure Humidity
    00:00 +22°C° 0 mm 1 mps 703 mmHg 99%
    01:00 +22°C° 0 mm 1 mps 702 mmHg 99%
    02:00 +22°C° 0 mm 1 mps 702 mmHg 99%
    03:00 +22°C° 0 mm 1 mps 702 mmHg 99%
    04:00 +22°C° 0 mm 1 mps 702 mmHg 98%
    05:00 +22°C° 0.1 mm 1 mps 703 mmHg 98%
    06:00 +22°C° 0.1 mm 1 mps 704 mmHg 98%
    07:00 +23°C° 0.1 mm 1 mps 704 mmHg 97%
    08:00 +24°C° 0.1 mm 1 mps 705 mmHg 89%
    09:00 +26°C° 0.1 mm 1 mps 705 mmHg 81%
    10:00 +28°C° 0.1 mm 1 mps 706 mmHg 72%
    11:00 +28°C° 0.9 mm 1 mps 705 mmHg 74%
    12:00 +28°C° 0.9 mm 1 mps 704 mmHg 75%
    13:00 +29°C° 0.9 mm 1 mps 703 mmHg 77%
    14:00 +28°C° 1 mm 1 mps 703 mmHg 79%
    15:00 +28°C° 1 mm 1 mps 702 mmHg 82%
    16:00 +27°C° 1 mm 1 mps 702 mmHg 84%
    17:00 +26°C° 0.7 mm 1 mps 702 mmHg 88%
    18:00 +25°C° 0.7 mm 1 mps 702 mmHg 92%
    19:00 +22°C° 0.7 mm 0 mps 703 mmHg 96%
    20:00 +23°C° 0.3 mm 1 mps 703 mmHg 96%
    21:00 +23°C° 0.3 mm 1 mps 704 mmHg 97%
    22:00 +23°C° 0.3 mm 1 mps 704 mmHg 97%
    23:00 +22°C° 0 mm 1 mps 704 mmHg 98%

    25 September, Tuesday

    Time Temperature Precipitation Wind Pressure Humidity
    00:00 +22°C° 0 mm 1 mps 703 mmHg 98%
    01:00 +22°C° 0 mm 1 mps 703 mmHg 99%
    02:00 +22°C° 0 mm 1 mps 702 mmHg 99%
    03:00 +19°C° 0 mm 0 mps 702 mmHg 99%
    04:00 +19°C° 0 mm 0 mps 702 mmHg 99%
    05:00 +19°C° 0 mm 0 mps 703 mmHg 99%
    06:00 +20°C° 0 mm 0 mps 703 mmHg 98%
    07:00 +22°C° 0 mm 1 mps 704 mmHg 98%
    08:00 +23°C° 0 mm 1 mps 704 mmHg 93%
    09:00 +22°C° 0 mm 0 mps 705 mmHg 88%
    10:00 +23°C° 0 mm 0 mps 705 mmHg 84%
    11:00 +27°C° 0 mm 1 mps 705 mmHg 74%
    12:00 +29°C° 0 mm 1 mps 704 mmHg 64%
    13:00 +32°C° 0 mm 1 mps 703 mmHg 55%
    14:00 +30°C° 1.2 mm 1 mps 703 mmHg 65%
    15:00 +29°C° 1.2 mm 1 mps 702 mmHg 75%
    16:00 +27°C° 1.2 mm 1 mps 702 mmHg 84%
    17:00 +26°C° 1.4 mm 1 mps 702 mmHg 88%
    18:00 +25°C° 1.4 mm 1 mps 702 mmHg 92%
    19:00 +23°C° 1.4 mm 1 mps 703 mmHg 96%
    20:00 +23°C° 0.4 mm 1 mps 703 mmHg 97%
    21:00 +23°C° 0.4 mm 1 mps 704 mmHg 97%
    22:00 +22°C° 0.4 mm 1 mps 704 mmHg 98%
    23:00 +22°C° 0.7 mm 1 mps 704 mmHg 98%

    26 September, Wednesday

    Time Temperature Precipitation Wind Pressure Humidity
    00:00 +22°C° 0.7 mm 1 mps 703 mmHg 98%
    01:00 +22°C° 0.7 mm 1 mps 703 mmHg 98%
    02:00 +22°C° 0.3 mm 1 mps 703 mmHg 99%
    03:00 +22°C° 0.3 mm 1 mps 702 mmHg 99%
    04:00 +20°C° 0.3 mm 0 mps 702 mmHg 99%
    05:00 +20°C° 0 mm 0 mps 703 mmHg 99%
    06:00 +20°C° 0 mm 0 mps 703 mmHg 98%
    07:00 +20°C° 0 mm 0 mps 703 mmHg 98%
    08:00 +21°C° 0 mm 0 mps 704 mmHg 92%
    09:00 +23°C° 0 mm 0 mps 704 mmHg 86%
    10:00 +24°C° 0 mm 0 mps 705 mmHg 81%
    11:00 +26°C° 0.2 mm 0 mps 704 mmHg 74%
    12:00 +27°C° 0.2 mm 0 mps 703 mmHg 68%
    13:00 +30°C° 0.2 mm 1 mps 703 mmHg 62%
    14:00 +30°C° 1 mm 1 mps 702 mmHg 67%
    15:00 +29°C° 1 mm 1 mps 702 mmHg 71%
    16:00 +28°C° 1 mm 1 mps 701 mmHg 76%
    17:00 +27°C° 0.6 mm 1 mps 702 mmHg 82%
    18:00 +25°C° 0.6 mm 1 mps 702 mmHg 88%
    19:00 +23°C° 0.6 mm 1 mps 703 mmHg 94%
    20:00 +23°C° 0.1 mm 1 mps 703 mmHg 95%
    21:00 +23°C° 0.1 mm 1 mps 703 mmHg 96%
    22:00 +22°C° 0.1 mm 1 mps 703 mmHg 98%
    23:00 +22°C° 0 mm 1 mps 703 mmHg 98%

    27 September, Thursday

    Time Temperature Precipitation Wind Pressure Humidity
    00:00 +22°C° 0 mm 1 mps 702 mmHg 98%
    01:00 +22°C° 0 mm 1 mps 702 mmHg 99%
    02:00 +22°C° 0 mm 1 mps 702 mmHg 99%
    03:00 +22°C° 0 mm 1 mps 702 mmHg 99%
    04:00 +22°C° 0 mm 1 mps 702 mmHg 99%
    05:00 +22°C° 0 mm 1 mps 702 mmHg 98%
    06:00 +22°C° 0 mm 1 mps 703 mmHg 98%
    07:00 +23°C° 0 mm 1 mps 704 mmHg 97%
    08:00 +23°C° 0.1 mm 1 mps 704 mmHg 94%
    09:00 +24°C° 0.1 mm 1 mps 704 mmHg 90%
    10:00 +25°C° 0.1 mm 1 mps 705 mmHg 86%
    11:00 +27°C° 0.1 mm 1 mps 704 mmHg 79%
    12:00 +26°C° 0.1 mm 0 mps 704 mmHg 72%
    13:00 +27°C° 0.1 mm 0 mps 703 mmHg 65%
    14:00 +27°C° 0.4 mm 0 mps 703 mmHg 68%
    15:00 +29°C° 0.4 mm 1 mps 702 mmHg 71%
    16:00 +29°C° 0.4 mm 1 mps 702 mmHg 74%
    17:00 +27°C° 0.7 mm 1 mps 702 mmHg 82%
    18:00 +25°C° 0.7 mm 1 mps 703 mmHg 89%
    19:00 +23°C° 0.7 mm 1 mps 703 mmHg 97%
    20:00 +23°C° 0 mm 1 mps 703 mmHg 97%
    21:00 +23°C° 0 mm 1 mps 703 mmHg 98%
    22:00 +23°C° 0 mm 1 mps 704 mmHg 98%
    23:00 +22°C° 0 mm 1 mps 703 mmHg 99%
    Show more